FW7889 Weather Reports


time (UTC)temp
C
wind
direction
speed
KPH
gust
KPH
rain 1hr
cm
rain 24hr
cm
rain mn
cm
humidity
%
barometer
mb
20260507054351 3 320 4.8 4.8 0.18 0.08 0.08 99 1064.3
20260507053347 4 312 1.6 1.6 0.00 0.05 0.05 99 1064.2
20260507052341 4 303 1.6 3.2 0.13 0.05 0.05 99 1064.1
20260507051337 4 265 1.6 3.2 0.00 0.03 0.03 99 1064.2
20260507050335 4 285 0.0 1.6 0.00 0.03 0.03 99 1063.9
20260507045335 5 267 1.6 3.2 0.18 0.03 0.03 99 1063.9
20260507044335 5 265 3.2 3.2 0.00 0.00 0.00 99 1063.9
20260507043333 5 273 1.6 1.6 0.00 0.00 0.00 99 1063.9
20260507042331 5 288 1.6 1.6 0.00 0.00 0.00 99 1063.7
20260507041331 5 264 0.0 1.6 0.00 0.00 0.00 99 1063.7
20260507040330 5 263 1.6 1.6 0.00 0.00 0.00 99 1063.9
20260507035327 5 267 1.6 1.6 0.00 2.06 2.06 99 1063.6
20260507034322 5 258 1.6 1.6 0.00 2.06 2.06 99 1064.2
20260507033318 5 266 0.0 0.0 0.00 2.06 2.06 99 1063.8
20260507032316 5 263 1.6 1.6 0.00 2.06 2.06 99 1064.1
20260507031316 5 267 1.6 1.6 0.00 2.06 2.06 99 1063.8
20260507030316 5 274 1.6 1.6 0.00 2.06 2.06 99 1063.9
20260507025315 5 269 0.0 0.0 0.00 2.06 2.06 99 1064.2
20260507024315 5 270 0.0 0.0 0.00 2.06 2.06 99 1064.2
20260507023312 5 270 0.0 1.6 0.00 2.06 2.06 99 1064.2
20260507022312 4 277 0.0 0.0 0.00 2.06 2.06 99 1064.2
20260507021310 4 274 0.0 1.6 0.00 2.06 2.06 99 1064.6
20260507020310 4 289 0.0 0.0 0.00 2.06 2.06 99 1064.3
20260507015310 4 275 0.0 0.0 0.00 2.06 2.06 99 1064.6
20260507014309 4 272 0.0 0.0 0.00 2.06 2.06 99 1064.5
20260507013309 5 268 0.0 0.0 0.00 2.06 2.06 99 1064.1
20260507012308 5 265 0.0 0.0 0.00 2.06 2.06 99 1064.5
20260507011308 5 270 0.0 0.0 0.00 2.06 2.06 99 1064.2
20260507010303 5 270 0.0 0.0 0.00 2.06 2.06 99 1064.2
20260507005305 5 269 0.0 0.0 0.00 2.06 2.06 99 1064.2
20260507004303 5 278 0.0 0.0 0.00 2.06 2.06 99 1063.7
20260507003301 5 284 0.0 0.0 0.00 2.06 2.06 99 1063.6
20260507002259 5 299 0.0 1.6 0.00 2.06 2.06 99 1063.4
20260507001254 5 339 3.2 3.2 0.00 2.06 2.06 99 1063.2
20260507000251 5 305 0.0 1.6 0.00 2.06 2.06 99 1063.3
20260506235249 5 305 1.6 1.6 0.00 2.06 2.06 99 1063.6
20260506234244 5 295 0.0 0.0 0.00 2.06 2.06 99 1063.5
20260506233244 5 350 3.2 4.8 0.00 2.06 2.06 99 1063.8
20260506232241 5 306 1.6 1.6 0.00 2.06 2.06 99 1063.6
20260506231237 5 323 4.8 4.8 0.00 2.06 2.06 99 1063.8
20260506230236 5 309 3.2 3.2 0.00 2.06 2.06 99 1063.5
20260506225236 5 357 4.8 8.0 0.00 2.06 2.06 99 1063.8
20260506224236 6 318 1.6 1.6 0.00 2.06 2.06 99 1063.5
20260506223233 6 307 1.6 1.6 0.00 2.06 2.06 99 1063.2
20260506222232 6 334 4.8 8.0 0.00 2.06 2.06 99 1062.9
20260506221228 6 311 4.8 4.8 0.00 2.06 2.06 99 1062.9
20260506220225 6 326 4.8 4.8 0.00 2.06 2.06 99 1062.9
20260506215224 6 304 3.2 3.2 0.00 2.06 2.06 99 1062.7
20260506214224 6 304 1.6 1.6 0.00 2.06 2.06 99 1062.7
20260506213219 6 300 1.6 1.6 0.00 2.06 2.06 99 1062.5
20260506212217 6 309 1.6 1.6 0.00 2.06 2.06 99 1062.0
20260506211215 6 301 3.2 4.8 0.00 2.06 2.06 99 1062.1
20260506210215 6 321 3.2 3.2 0.00 2.06 2.06 99 1062.3
20260506205213 6 316 1.6 1.6 0.18 2.06 2.06 99 1062.2
20260506204208 6 312 1.6 3.2 0.00 2.03 2.03 99 1062.2
20260506203203 6 339 3.2 3.2 0.00 2.03 2.03 99 1062.1
20260506202202 6 326 1.6 3.2 0.00 2.03 2.03 99 1061.9
20260506201202 7 332 4.8 8.0 0.00 2.03 2.03 99 1061.6
20260506200202 6 338 4.8 4.8 0.00 2.03 2.03 99 1061.9
20260506195200 7 317 3.2 3.2 0.13 2.03 2.03 99 1061.9
20260506194200 7 358 8.0 9.7 0.00 2.01 2.01 99 1061.9
20260506193200 7 308 1.6 1.6 0.18 2.01 2.01 99 1061.6
20260506192200 7 318 3.2 3.2 0.00 1.98 1.98 99 1061.8
20260506191158 7 317 4.8 4.8 0.00 1.98 1.98 99 1061.8
20260506190158 7 296 0.0 0.0 0.00 1.98 1.98 99 1061.5
20260506185157 7 338 3.2 3.2 0.13 1.98 1.98 99 1061.3
20260506184152 7 309 0.0 1.6 0.00 1.96 1.96 99 1061.1
20260506183151 7 306 1.6 3.2 0.00 1.96 1.96 99 1061.5
20260506182151 6 252 0.0 0.0 0.00 1.96 1.96 99 1061.4
20260506181146 6 78 4.8 8.0 0.00 1.96 1.96 99 1060.9
20260506180145 6 307 0.0 0.0 0.00 1.96 1.96 99 1061.1
20260506175144 6 286 0.0 0.0 0.00 1.96 1.96 99 1061.2
20260506174139 6 300 0.0 1.6 0.00 1.96 1.96 99 1061.1
20260506173139 6 55 1.6 1.6 0.00 1.96 1.96 99 1061.4
20260506172138 6 297 0.0 1.6 0.00 1.96 1.96 99 1061.3
20260506171134 6 2 1.6 1.6 0.18 1.96 1.96 99 1061.1
20260506170128 6 90 4.8 4.8 0.00 1.93 1.93 99 1061.1
20260506165127 6 303 0.0 1.6 0.13 1.93 1.93 99 1061.2
20260506164127 6 310 0.0 1.6 0.18 1.91 1.91 99 1061.6
20260506163123 5 315 1.6 3.2 0.13 1.88 1.88 99 1061.5
20260506162123 5 314 1.6 1.6 0.18 1.85 1.85 99 1061.8
20260506161121 5 78 0.0 0.0 0.13 1.83 1.83 99 1061.9
20260506160120 5 78 6.4 8.0 0.00 1.80 1.80 99 1061.5
20260506155116 5 59 1.6 3.2 0.13 1.78 1.78 99 1061.6
20260506152924 5 288 0.0 0.0 0.18 1.75 1.75 99 1061.6
20260506151920 5 357 1.6 1.6 0.18 1.73 1.73 99 1061.2
20260506150920 5 311 0.0 1.6 0.13 1.70 1.70 99 1061.5
20260506145919 5 292 0.0 0.0 0.18 1.68 1.68 99 1061.4
20260506144918 5 319 1.6 1.6 0.18 1.63 1.63 99 1061.3
20260506143913 5 86 3.2 3.2 0.30 1.60 1.60 99 1061.3
20260506142908 5 320 0.0 1.6 0.30 1.55 1.55 99 1061.6
20260506141904 5 295 0.0 0.0 0.30 1.50 1.50 99 1061.9
20260506140859 4 75 4.8 8.0 0.48 1.45 1.45 99 1061.9
20260506135859 4 31 1.6 1.6 0.30 1.37 1.37 99 1061.8
20260506134858 4 314 1.6 1.6 0.43 1.32 1.32 99 1061.6
20260506133857 4 323 3.2 3.2 0.30 1.24 1.24 99 1061.8
20260506132855 4 317 1.6 3.2 0.30 1.17 1.17 99 1061.6
20260506131851 5 320 1.6 1.6 0.30 1.12 1.12 99 1061.6
20260506130850 5 313 4.8 4.8 0.30 1.07 1.07 99 1061.4
20260506125850 5 330 3.2 3.2 0.13 0.99 0.99 99 1061.1
20260506124846 5 311 1.6 1.6 0.00 0.94 0.94 99 1061.4
20260506123846 5 280 0.0 0.0 0.18 0.91 0.91 99 1061.5
20260506122842 5 74 3.2 4.8 0.13 0.89 0.89 99 1061.6
20260506121837 4 97 8.0 9.7 0.18 0.86 0.86 99 1061.6
20260506120836 4 333 1.6 1.6 0.30 0.84 0.84 99 1062.0
20260506115831 4 328 1.6 1.6 0.18 0.79 0.79 99 1062.3
20260506114827 4 61 4.8 9.7 0.30 0.76 0.76 99 1061.9
20260506113823 5 66 3.2 4.8 0.30 0.71 0.71 99 1062.4
20260506112822 5 72 3.2 4.8 0.13 0.66 0.66 99 1062.6
20260506111817 5 287 0.0 0.0 0.30 0.61 0.61 99 1063.1
20260506110812 5 308 1.6 1.6 0.30 0.56 0.56 99 1063.0
20260506105812 5 316 3.2 3.2 0.30 0.51 0.51 99 1063.0
20260506104806 5 326 3.2 3.2 0.30 0.43 0.43 99 1062.8
20260506103801 5 298 1.6 3.2 0.13 0.38 0.38 99 1062.6
20260506102801 5 289 0.0 0.0 0.00 0.36 0.36 99 1062.3
20260506101756 5 290 0.0 0.0 0.00 0.36 0.36 99 1062.4
20260506100756 5 58 1.6 1.6 0.18 0.36 0.36 99 1062.7
20260506095753 5 282 0.0 0.0 0.30 0.33 0.33 99 1062.8
20260506094751 5 84 1.6 1.6 0.00 0.28 0.28 99 1062.6
20260506093748 5 310 1.6 1.6 0.00 0.28 0.28 99 1062.5
20260506092748 5 291 0.0 1.6 0.00 0.28 0.28 99 1062.8
20260506091748 5 285 0.0 0.0 0.13 0.28 0.28 99 1062.8
20260506090744 5 314 3.2 3.2 0.00 0.25 0.25 99 1062.8
20260506085743 5 294 0.0 0.0 0.18 0.25 0.25 99 1063.1
20260506084742 5 322 0.0 1.6 0.00 0.23 0.23 99 1063.0
20260506083741 5 289 0.0 0.0 0.00 0.23 0.23 99 1062.9
20260506082736 6 323 1.6 1.6 0.00 0.23 0.23 99 1062.6
20260506081735 6 319 3.2 3.2 0.00 0.23 0.23 99 1063.2
20260506080731 6 322 1.6 3.2 0.00 0.23 0.23 99 1062.6
20260506072725 6 287 0.0 0.0 0.00 0.20 0.20 99 1062.8
20260506071720 6 79 4.8 4.8 0.00 0.20 0.20 99 1062.8
20260506070720 6 95 4.8 4.8 0.30 0.20 0.20 99 1063.2
20260506061708 7 289 0.0 0.0 0.00 0.15 0.15 99 1063.4
20260506060704 7 312 1.6 1.6 0.00 0.15 0.15 99 1063.7